Location: Hemaruka
(51.7801°N, 111.0917°W)
Time: 03:43:43
(UTC+00:00)

CUTE-I - Visible Passes

Search period start: 07 December 2023 00:00
Search period end: 17 December 2023 00:00
Orbit: 808 x 822 km, 98.7° (Epoch: 06 December)

Date Brightness Start Highest point End Pass type
(mag) Time Alt. Az. Time Alt. Az. Time Alt. Az.
07 Dec ? 00:45:53 10° S 00:51:11 77° WSW 00:56:33 10° NNW visible
07 Dec ? 02:29:35 10° WSW 02:32:06 13° W 02:34:37 10° NW visible
07 Dec ? 12:57:02 10° NE 13:01:40 28° E 13:06:15 10° SSE visible
07 Dec ? 14:36:43 10° N 14:41:56 53° WNW 14:47:08 10° SW visible
08 Dec ? 00:23:42 10° SSE 00:28:59 75° ENE 00:34:20 10° NNW visible
08 Dec ? 02:05:44 10° SW 02:09:34 20° W 02:13:27 10° NW visible
08 Dec ? 12:35:22 10° NE 12:39:13 20° E 12:43:02 10° SE visible
08 Dec ? 14:14:25 10° NNE 14:19:48 77° WNW 14:25:10 10° SSW visible
09 Dec ? 00:01:45 10° SE 00:06:52 52° ENE 00:12:03 10° N visible
09 Dec ? 01:42:32 10° SSW 01:47:07 29° W 01:51:45 10° NNW visible
09 Dec ? 12:14:15 10° ENE 12:16:41 13° E 12:19:07 10° ESE visible
09 Dec ? 13:52:13 10° NNE 13:57:37 74° ESE 14:02:59 10° S visible
10 Dec ? 01:19:43 10° S 01:24:45 43° W 01:29:50 10° NNW visible
10 Dec ? 13:30:07 10° NNE 13:35:21 50° E 13:40:34 10° S visible
11 Dec ? 00:57:11 10° S 01:02:27 63° WSW 01:07:46 10° NNW visible
11 Dec ? 02:42:26 10° W 02:43:32 11° W 02:44:40 10° WNW visible
11 Dec ? 13:08:07 10° NNE 13:13:01 34° E 13:17:53 10° SSE visible
12 Dec ? 00:34:54 10° SSE 00:40:13 89° E 00:45:37 10° NNW visible
12 Dec ? 02:17:40 10° SW 02:20:58 16° W 02:24:17 10° NW visible
12 Dec ? 12:46:19 10° NE 12:50:36 24° E 12:54:52 10° SE visible
12 Dec ? 14:25:43 10° N 14:31:02 64° WNW 14:36:20 10° SSW visible
13 Dec ? 00:12:50 10° SSE 00:18:04 62° ENE 00:23:21 10° N visible
13 Dec ? 01:54:13 10° SW 01:58:29 24° W 02:02:47 10° NW visible
13 Dec ? 12:24:50 10° NE 12:28:06 16° E 12:31:22 10° SE visible
13 Dec ? 14:03:27 10° NNE 14:08:52 89° ESE 14:14:15 10° SSW visible
13 Dec ? 23:50:58 10° SE 23:55:58 43° ENE 00:01:00 10° N visible
14 Dec ? 01:31:13 10° SSW 01:36:04 35° W 01:40:58 10° NNW visible
14 Dec ? 12:04:36 10° ENE 12:05:31 10° E 12:06:27 10° E visible
14 Dec ? 13:41:17 10° NNE 13:46:38 62° ESE 13:51:56 10° S visible
15 Dec ? 01:08:33 10° S 01:13:43 52° W 01:18:58 10° NNW visible
15 Dec ? 13:19:14 10° NNE 13:24:20 42° E 13:29:24 10° SSE visible
16 Dec ? 00:46:08 10° S 00:51:28 76° WSW 00:56:50 10° NNW visible
16 Dec ? 02:29:51 10° WSW 02:32:22 13° W 02:34:54 10° NW visible
16 Dec ? 12:57:18 10° NE 13:01:57 29° E 13:06:33 10° SSE visible
16 Dec ? 14:36:59 10° N 14:42:13 53° WNW 14:47:25 10° SW visible
